SCP
0 0 0 0 0 0 0 0 0 0 0 0 0 0 0 0 0 1 1 1 2 2 2 1 1 2 2 2 2 2 2 2 2 2 1 1 1 1 1 1 1 1 1
0 0 0 0 0 0 0 0 0 0 0 0 0 0 0 0 1 1 1 1 1 2 2 2 2 2 2 2 2 2 2 2 2 2 2 2 1 1 1 1 1 1 1
0 0 0 0 0 0 0 0 0 0 0 0 0 0 0 0 1 1 1 0 1 1 1 1 2 2 2 2 3 3 3 3 3 3 3 2 2 2 2 2 2 2 2
0 0 0 0 0 0 0 0 0 0 0 0 0 0 0 0 0 0 0 0 0 0 0 1 1 2 2 2 3 3 3 3 3 3 3 3 2 2 2 2 2 2 2
0 0 0 0 0 0 0 0 0 0 0 0 0 0 0 0 0 0 0 0 0 0 0 0 1 1 1 2 2 2 3 3 3 3 3 3 2 2 2 2 2 2 2
0 0 0 0 0 0 0 0 0 0 0 0 0 0 0 0 0 0 0 0 0 0 0 0 0 0 0 1 1 2 2 3 3 3 3 3 3 2 2 2 2 2 2
0 0 0 0 0 0 0 0 0 0 0 0 0 0 0 0 0 0 0 0 0 0 0 0 0 0 0 0 0 1 2 2 3 3 3 3 3 2 2 2 2 2 2
0 0 0 0 0 0 0 0 0 0 0 0 0 0 -0 -0 0 0 0 0 0 0 0 0 0 0 0 0 0 0 1 1 2 2 2 2 2 2 2 2 1 1 1
0 0 0 0 0 0 0 0 0 0 0 0 0 0 0 0 0 0 0 0 0 0 0 0 0 0 0 0 0 0 0 1 1 1 1 1 2 2 2 1 1 1 1
0 0 0 0 0 0 0 0 0 0 0 0 0 0 0 0 0 0 0 0 0 0 0 0 0 0 0 0 0 0 0 0 0 1 1 1 1 2 2 1 1 1 1
0 0 0 0 0 0 0 0 0 0 0 0 0 0 0 0 0 0 0 0 0 0 0 0 0 0 0 0 0 0 0 0 0 0 0 1 1 1 2 1 1 0 0
0 0 0 0 0 0 0 0 0 0 0 0 0 0 0 0 0 0 0 0 0 0 0 0 0 0 0 0 0 0 0 0 0 0 0 0 1 1 1 1 1 1 0
0 0 0 0 0 0 0 0 0 0 0 0 0 0 0 0 0 0 0 0 0 0 0 0 0 0 0 0 0 0 0 0 0 0 0 0 0 0 1 1 1 1 0
0 0 0 0 0 0 0 0 0 0 0 0 0 0 0 0 0 0 0 0 0 0 0 0 0 0 0 0 0 0 0 0 0 0 0 0 0 0 0 0 0 0 0
0 0 0 0 0 0 0 0 0 0 0 0 0 0 0 0 0 0 0 0 0 0 0 0 0 0 0 0 0 0 0 0 0 0 0 0 0 0 0 0 0 0 0
0 0 0 0 0 0 0 0 0 0 0 0 0 0 0 0 0 0 0 0 0 0 0 0 0 0 0 0 0 0 0 0 0 0 0 0 0 0 0 0 0 0 0
0 0 0 0 0 0 0 0 0 0 0 0 0 0 0 0 0 0 0 0 0 0 0 0 0 0 0 0 0 0 0 0 0 0 0 0 0 0 0 0 0 0 0
0 0 0 0 0 0 0 0 0 0 0 0 0 0 0 0 0 0 0 0 0 0 0 0 0 0 0 0 0 0 0 0 0 0 0 0 0 0 0 0 0 0 0
0 0 0 0 0 0 0 0 0 0 0 0 0 0 0 0 0 0 0 0 0 0 0 0 0 -0 0 0 0 0 0 0 0 0 0 0 0 0 0 0 0 0 0
0 0 0 0 0 0 0 0 0 0 0 0 0 0 0 0 0 0 0 0 0 0 0 0 -0 -0 -0 0 0 0 0 0 0 0 0 0 0 0 0 0 0 0 0
0 0 0 0 0 0 0 0 0 0 0 0 0 0 0 0 0 0 0 0 0 0 0 -0 -0 -0 0 0 0 0 0 0 0 0 0 0 0 0 0 0 0 0 0
0 0 0 0 0 0 0 0 0 0 0 0 0 0 0 0 0 0 0 0 0 0 -0 -0 -0 0 0 0 0 0 0 0 0 0 0 0 0 0 0 0 0 0 0
0 0 0 0 0 0 0 0 0 0 0 0 0 0 0 0 0 0 0 0 0 0 -0 -0 0 0 0 0 0 0 0 0 0 0 0 0 0 0 0 0 0 0 0
0 0 0 0 0 0 0 0 0 0 0 0 0 0 0 0 0 0 0 0 0 0 -0 0 0 0 0 0 0 0 0 0 0 0 0 0 0 0 0 0 0 0 0
0 0 0 0 0 0 0 0 0 0 0 0 0 0 0 0 0 0 0 0 0 0 0 0 0 0 0 0 0 0 0 0 0 0 0 0 0 0 0 0 0 0 0
0 0 0 0 0 0 0 0 0 0 0 0 0 0 0 0 0 0 0 0 0 0 0 0 0 0 0 0 0 0 0 0 0 0 0 0 0 0 0 0 0 0 0
Wind_Speed
2 2 1 1 2 2 3 3 3 4 5 5 5 5 4 3 4 4 4 9 10 11 12 12 10 11 13 14 12 12 11 10 10 10 11 10 9 9 9 8 8 9 10
3 2 1 1 1 2 2 2 2 2 3 3 4 4 4 3 3 3 3 5 8 10 13 13 12 13 14 15 14 14 14 13 13 12 13 13 13 12 11 11 11 10 10
1 1 1 1 1 1 1 1 2 2 2 2 3 4 4 4 3 3 4 4 5 8 11 13 12 11 12 14 15 14 15 16 16 15 14 14 14 15 15 15 13 12 10
3 2 2 2 3 3 3 3 3 3 4 4 4 4 5 5 6 6 6 6 5 5 7 11 10 9 10 10 12 14 14 15 14 14 15 16 16 16 16 16 15 14 13
5 4 3 2 2 2 2 2 2 3 3 4 4 4 4 4 4 4 4 4 4 4 4 7 11 11 11 10 10 10 12 13 12 11 12 16 17 18 17 16 16 16 15
7 5 4 4 4 3 3 3 4 5 4 4 4 4 5 4 1 1 2 1 1 1 2 3 3 4 11 12 10 9 9 9 10 9 8 11 13 13 15 15 15 15 15
7 6 5 5 5 5 5 5 2 4 5 4 3 4 4 3 1 2 3 2 1 1 1 1 2 3 4 9 10 9 7 7 7 5 5 6 3 5 12 12 14 15 15
7 7 6 5 5 4 5 5 5 3 3 4 3 4 4 4 2 6 6 4 4 4 5 6 5 5 3 5 10 14 11 7 8 8 7 4 4 3 5 9 13 16 16
7 6 5 4 3 3 3 3 3 3 2 2 1 2 3 5 5 4 4 3 4 5 6 6 7 6 6 7 9 11 12 3 5 6 4 3 3 4 4 3 12 17 17
6 5 5 4 4 3 3 3 4 3 2 3 3 2 3 4 5 5 3 6 6 7 8 8 9 8 8 8 9 11 13 6 3 7 9 8 6 7 4 4 11 14 16
3 3 3 3 3 3 3 3 3 3 2 2 2 3 3 3 4 5 8 8 8 7 8 8 8 7 8 7 7 9 14 7 3 6 10 12 12 14 12 12 13 17 21
2 2 3 2 2 2 2 3 3 3 2 2 2 2 2 3 5 5 8 11 11 8 8 7 7 8 7 6 7 12 14 10 6 8 12 15 15 16 16 16 18 21 22
1 2 1 1 1 0 0 0 1 1 2 2 3 3 4 6 6 7 9 9 10 9 9 7 7 7 7 6 7 12 12 10 10 10 12 16 17 17 17 16 16 17 19
2 2 2 1 1 1 2 1 1 2 3 3 5 5 6 8 7 6 7 8 11 10 10 11 7 5 4 5 10 15 9 12 13 12 13 16 17 15 11 10 11 12 13
2 2 3 2 2 3 3 3 2 3 3 4 5 6 7 8 6 6 6 7 8 9 11 12 8 5 5 6 9 9 7 11 15 15 16 16 16 13 12 11 12 12 12
2 3 4 3 3 5 6 5 4 5 5 5 4 7 8 7 7 7 7 6 7 8 11 11 9 9 8 7 9 9 7 13 12 15 15 16 15 15 13 13 14 15 16
4 4 5 5 4 7 7 6 7 7 7 7 7 8 10 10 9 8 7 6 6 7 8 9 8 8 9 9 7 7 7 6 7 8 6 7 4 6 8 11 13 15 17
5 6 5 5 6 8 8 7 8 8 7 8 9 9 11 10 11 10 8 8 7 7 7 8 9 8 9 8 7 7 6 5 5 1 2 4 5 8 10 11 14 17 19
5 7 6 7 7 7 7 8 7 7 6 7 8 10 12 12 12 10 9 9 8 7 7 7 9 7 6 5 7 7 6 5 4 2 2 3 6 9 11 12 15 17 18
7 8 8 7 7 5 5 6 4 4 5 7 9 11 12 12 12 12 10 10 8 7 7 8 8 8 10 8 7 7 5 4 3 2 1 3 7 9 12 15 17 19 19
8 8 7 6 5 4 4 2 1 3 6 9 11 11 11 15 18 15 11 9 7 7 6 7 9 9 8 8 7 5 5 3 2 1 1 2 4 6 9 14 18 22 26
7 4 4 4 5 3 4 5 4 4 7 9 10 11 12 14 15 16 17 15 13 11 9 9 10 10 11 9 7 6 3 3 3 1 1 2 5 6 8 10 21 29 30
6 6 5 5 4 3 4 7 10 6 7 8 10 11 10 11 12 11 13 15 16 17 17 14 13 14 13 10 7 5 4 3 2 1 0 1 4 6 8 12 28 34 18
5 4 5 6 6 6 10 11 14 8 8 10 11 10 10 12 12 12 10 11 11 12 14 13 13 14 12 9 6 4 4 5 4 2 1 1 4 5 8 13 27 32 19
4 4 4 5 6 8 12 14 13 8 9 10 11 10 11 10 13 15 12 11 11 10 12 15 14 12 15 9 8 7 7 6 3 1 1 1 3 4 6 11 16 26 27
4 6 6 6 7 8 11 14 15 8 9 9 9 10 14 14 16 16 11 9 9 10 9 7 6 7 8 9 9 6 6 4 3 1 1 1 3 3 3 8 11 13 16
Wind_Direction
211 235 262 300 294 299 296 292 312 328 331 327 315 313 317 324 321 312 308 315 323 323 312 300 292 286 269 259 252 246 241 243 240 231 228 234 239 240 242 239 238 236 234
217 239 255 258 270 287 291 277 283 312 311 316 315 311 301 299 295 291 298 304 318 320 314 310 311 310 299 283 268 252 245 242 245 240 235 229 227 228 226 223 223 231 237
102 113 60 29 8 331 313 345 312 299 318 328 317 318 313 318 333 345 343 335 337 340 339 329 326 325 313 298 285 272 261 259 251 244 246 242 232 225 221 218 218 220 222
59 63 57 23 357 9 12 4 356 345 4 359 343 338 333 342 348 7 13 5 357 1 350 333 337 347 336 323 307 289 277 269 263 254 251 252 246 236 225 215 212 211 207
59 66 59 27 21 35 25 30 39 25 19 356 342 348 338 334 348 22 3 349 353 9 5 355 2 3 355 7 360 336 305 282 270 269 266 261 256 249 236 221 211 208 206
49 52 46 36 35 44 23 33 68 53 24 352 343 337 312 287 230 74 347 336 4 45 29 4 352 11 1 353 1 10 358 319 293 280 279 271 262 261 256 244 228 210 210
41 41 39 37 40 48 33 27 48 49 22 1 356 320 295 289 146 6 355 346 333 318 304 319 298 315 334 331 332 335 351 359 349 322 311 315 302 287 275 262 241 221 218
45 47 42 42 43 46 40 32 28 15 359 14 12 320 319 314 337 329 322 315 324 328 320 315 297 289 333 327 315 318 321 355 359 1 14 337 16 6 284 259 245 234 227
56 53 49 45 45 51 47 33 26 20 336 332 315 285 307 298 319 284 291 315 311 309 316 311 302 304 313 304 304 306 299 312 10 333 339 12 9 29 30 278 248 237 237
48 42 37 34 32 29 34 25 27 15 359 331 317 309 303 297 300 310 314 306 297 298 297 298 298 294 299 300 302 298 289 274 349 327 311 283 281 281 295 303 254 238 248
44 42 48 53 46 30 30 31 26 16 7 326 320 318 311 299 280 292 298 297 288 284 283 289 292 298 300 299 300 294 294 300 299 321 319 303 281 267 259 254 252 245 241
10 20 40 52 51 29 8 18 11 4 2 345 337 325 303 305 312 298 294 299 295 287 281 291 287 286 285 283 290 304 299 292 286 315 323 311 302 289 274 258 252 249 247
300 330 7 55 92 62 296 304 338 325 331 327 321 303 286 278 275 276 283 285 284 291 285 272 265 269 268 289 296 297 296 302 294 293 297 300 298 293 285 277 265 259 257
240 253 248 218 195 212 238 254 300 286 292 307 305 296 290 286 279 272 273 283 291 290 289 285 280 255 271 290 295 297 300 300 292 282 280 281 285 282 283 286 283 275 270
242 246 262 280 285 277 276 269 256 266 280 288 295 299 297 288 277 269 262 258 267 285 292 288 283 251 271 275 279 287 281 284 287 286 282 275 263 245 249 256 260 260 261
260 282 284 289 294 278 269 265 272 277 282 286 296 302 299 298 294 279 259 248 239 254 274 282 277 277 279 272 277 280 284 295 292 296 295 283 251 234 248 256 259 257 252
303 280 259 256 272 275 268 259 261 269 276 292 298 300 298 301 295 285 265 252 246 246 265 276 275 278 273 267 272 272 281 280 286 298 353 8 355 312 294 285 279 272 264
289 281 276 269 275 276 271 259 267 276 283 290 296 301 299 298 291 285 275 270 261 252 255 273 282 277 264 259 260 265 266 268 261 196 339 328 317 308 300 290 278 269 261
285 284 278 267 266 273 274 268 264 271 279 289 294 296 294 290 282 280 277 275 270 261 259 271 284 288 282 278 268 260 252 239 215 211 273 310 315 309 299 292 283 272 259
267 268 263 264 277 295 292 288 287 283 292 298 296 291 286 280 275 272 272 274 280 277 279 283 288 290 288 283 267 265 258 190 185 176 248 333 334 323 314 306 296 282 264
265 270 287 297 304 307 316 335 333 309 305 303 299 295 290 289 288 282 282 282 282 280 285 286 283 281 278 277 261 252 248 157 166 185 232 335 342 331 322 312 300 287 275
297 302 304 322 325 344 43 11 339 310 302 300 300 298 296 298 296 295 297 300 297 292 283 278 279 277 276 268 247 236 189 146 180 180 260 347 338 316 313 303 304 298 280
2 20 16 14 5 333 334 325 321 309 295 297 295 292 297 299 297 289 290 298 296 284 277 279 271 267 269 263 235 219 173 157 131 111 26 323 312 311 324 323 329 328 312
30 21 11 6 352 327 316 320 329 315 299 295 292 289 291 292 289 288 293 291 284 276 273 270 261 260 255 258 220 187 140 111 94 75 28 288 311 314 333 340 344 351 12
13 356 353 351 345 333 330 333 331 314 304 298 296 296 292 292 294 295 294 290 285 284 283 285 280 267 246 210 153 127 128 132 114 89 314 299 321 307 337 349 352 6 32
5 355 347 336 336 332 329 325 321 312 305 305 303 302 303 301 301 302 301 292 289 294 305 322 345 50 76 104 115 119 132 123 110 142 245 12 343 336 0 353 355 7 26